| time (UTC) | temp F | wind direction | speed MPH | gust MPH | rain 1hr in | rain 24hr in | rain mn in | humidity % | barometer mb |
| 20260508205123 | 103 | 156 | 1.0 | 6.0 | 0.00 | 0.00 | 0.00 | 100 | 1009.0 |
| 20260508204850 | 103 | 22 | 0.0 | 6.0 | 0.00 | 0.00 | 0.00 | 100 | 1009.1 |
| 20260508204113 | 103 | 130 | 0.0 | 8.0 | 0.00 | 0.00 | 0.00 | 100 | 1009.2 |
| 20260508203608 | 104 | 154 | 1.0 | 8.0 | 0.00 | 0.00 | 0.00 | 100 | 1009.2 |
| 20260508203108 | 104 | 11 | 2.0 | 8.0 | 0.00 | 0.00 | 0.00 | 100 | 1009.2 |
| 20260508202609 | 104 | 147 | 4.0 | 9.0 | 0.00 | 0.00 | 0.00 | 100 | 1009.2 |
| 20260508202103 | 105 | 129 | 0.0 | 9.0 | 0.00 | 0.00 | 0.00 | 100 | 1009.2 |
| 20260508201603 | 104 | 153 | 3.0 | 7.0 | 0.00 | 0.00 | 0.00 | 100 | 1009.2 |
| 20260508201104 | 105 | 16 | 1.0 | 9.0 | 0.00 | 0.00 | 0.00 | 100 | 1009.3 |
| 20260508201100 | 105 | 46 | 0.0 | 9.0 | 0.00 | 0.00 | 0.00 | 100 | 1009.3 |
| 20260508200329 | 105 | 68 | 2.0 | 6.0 | 0.00 | 0.00 | 0.00 | 100 | 1009.4 |
| 20260508195557 | 104 | 163 | 0.0 | 6.0 | 0.00 | 0.00 | 0.00 | 100 | 1009.5 |
| 20260508195048 | 103 | 118 | 3.0 | 5.0 | 0.00 | 0.00 | 0.00 | 100 | 1009.6 |
| 20260508194546 | 103 | 122 | 0.0 | 5.0 | 0.00 | 0.00 | 0.00 | 100 | 1009.7 |
| 20260508194046 | 103 | 82 | 0.0 | 5.0 | 0.00 | 0.00 | 0.00 | 100 | 1009.9 |
| 20260508193543 | 103 | 22 | 1.0 | 6.0 | 0.00 | 0.00 | 0.00 | 100 | 1009.9 |
| 20260508193042 | 103 | 73 | 0.0 | 6.0 | 0.00 | 0.00 | 0.00 | 100 | 1010.0 |
| 20260508192540 | 103 | 19 | 0.0 | 6.0 | 0.00 | 0.00 | 0.00 | 100 | 1010.0 |
| 20260508192040 | 103 | 126 | 1.0 | 5.0 | 0.00 | 0.00 | 0.00 | 100 | 1010.2 |
| 20260508191535 | 103 | 82 | 2.0 | 7.0 | 0.00 | 0.00 | 0.00 | 100 | 1010.2 |
| 20260508191030 | 104 | 109 | 3.0 | 7.0 | 0.00 | 0.00 | 0.00 | 100 | 1010.2 |
| 20260508190751 | 104 | 333 | 0.0 | 5.0 | 0.00 | 0.00 | 0.00 | 100 | 1010.3 |
| 20260508190021 | 105 | 12 | 2.0 | 6.0 | 0.00 | 0.00 | 0.00 | 100 | 1010.2 |
| 20260508185514 | 104 | 30 | 0.0 | 6.0 | 0.00 | 0.00 | 0.00 | 100 | 1010.3 |
| 20260508185013 | 104 | 136 | 0.0 | 5.0 | 0.00 | 0.00 | 0.00 | 100 | 1010.4 |
| 20260508184505 | 103 | 126 | 3.0 | 6.0 | 0.00 | 0.00 | 0.00 | 100 | 1010.4 |
| 20260508184236 | 103 | 54 | 0.0 | 6.0 | 0.00 | 0.00 | 0.00 | 100 | 1010.5 |
| 20260508183503 | 104 | 132 | 1.0 | 6.0 | 0.00 | 0.00 | 0.00 | 100 | 1010.6 |
| 20260508183001 | 103 | 165 | 4.0 | 6.0 | 0.00 | 0.00 | 0.00 | 100 | 1010.7 |
| 20260508182501 | 104 | 60 | 3.0 | 9.0 | 0.00 | 0.00 | 0.00 | 100 | 1010.7 |
| 20260508182001 | 103 | 68 | 4.0 | 9.0 | 0.00 | 0.00 | 0.00 | 100 | 1010.8 |
| 20260508181458 | 103 | 8 | 2.0 | 6.0 | 0.00 | 0.00 | 0.00 | 100 | 1010.9 |
| 20260508181229 | 103 | 91 | 0.0 | 6.0 | 0.00 | 0.00 | 0.00 | 100 | 1011.0 |
| 20260508180458 | 103 | 315 | 4.0 | 6.0 | 0.00 | 0.00 | 0.00 | 100 | 1011.1 |
| 20260508175957 | 103 | 210 | 2.0 | 5.0 | 0.00 | 0.00 | 0.00 | 100 | 1011.2 |
| 20260508175456 | 103 | 144 | 4.0 | 7.0 | 0.00 | 0.00 | 0.00 | 100 | 1011.1 |
| 20260508174957 | 103 | 158 | 1.0 | 7.0 | 0.00 | 0.00 | 0.00 | 100 | 1011.2 |
| 20260508174451 | 102 | 348 | 0.0 | 5.0 | 0.00 | 0.00 | 0.00 | 100 | 1011.3 |
| 20260508173950 | 103 | 310 | 1.0 | 5.0 | 0.00 | 0.00 | 0.00 | 100 | 1011.4 |
| 20260508173449 | 103 | 119 | 4.0 | 5.0 | 0.00 | 0.00 | 0.00 | 100 | 1011.4 |
| 20260508173220 | 103 | 78 | 0.0 | 5.0 | 0.00 | 0.00 | 0.00 | 100 | 1011.5 |
| 20260508172719 | 102 | 268 | 1.0 | 5.0 | 0.00 | 0.00 | 0.00 | 100 | 1011.6 |
| 20260508171944 | 102 | 322 | 4.0 | 7.0 | 0.00 | 0.00 | 0.00 | 100 | 1011.6 |
| 20260508171443 | 102 | 302 | 5.0 | 7.0 | 0.00 | 0.00 | 0.00 | 100 | 1011.6 |
| 20260508170943 | 101 | 337 | 3.0 | 5.0 | 0.00 | 0.00 | 0.00 | 100 | 1011.8 |
| 20260508170443 | 101 | 47 | 0.0 | 3.0 | 0.00 | 0.00 | 0.00 | 100 | 1011.8 |
| 20260508165934 | 101 | 47 | 0.0 | 6.0 | 0.00 | 0.00 | 0.00 | 100 | 1011.8 |
| 20260508165432 | 100 | 21 | 3.0 | 6.0 | 0.00 | 0.00 | 0.00 | 100 | 1011.9 |
| 20260508165203 | 100 | 81 | 0.0 | 6.0 | 0.00 | 0.00 | 0.00 | 100 | 1011.9 |
| 20260508164432 | 100 | 29 | 0.0 | 0.0 | 0.00 | 0.00 | 0.00 | 100 | 1012.1 |
| 20260508163924 | 99 | 29 | 0.0 | 0.0 | 0.00 | 0.00 | 0.00 | 100 | 1012.3 |
| 20260508163422 | 99 | 29 | 0.0 | 0.0 | 0.00 | 0.00 | 0.00 | 100 | 1012.3 |
| 20260508163418 | 99 | 29 | 0.0 | 0.0 | 0.00 | 0.00 | 0.00 | 100 | 1012.3 |
| 20260508162407 | 99 | 29 | 0.0 | 0.0 | 0.00 | 0.00 | 0.00 | 100 | 1012.5 |
| 20260508161844 | 99 | 29 | 0.0 | 0.0 | 0.00 | 0.00 | 0.00 | 100 | 1012.5 |
| 20260508161840 | 98 | 29 | 0.0 | 0.0 | 0.00 | 0.00 | 0.00 | 100 | 1012.4 |
| 20260508160832 | 99 | 29 | 0.0 | 0.0 | 0.00 | 0.00 | 0.00 | 100 | 1012.5 |
| 20260508160556 | 99 | 29 | 0.0 | 0.0 | 0.00 | 0.00 | 0.00 | 100 | 1012.6 |
| 20260508160043 | 99 | 29 | 0.0 | 0.0 | 0.00 | 0.00 | 0.00 | 100 | 1012.6 |
| 20260508155538 | 98 | 29 | 0.0 | 0.0 | 0.00 | 0.00 | 0.00 | 100 | 1012.6 |
| 20260508154802 | 98 | 29 | 0.0 | 0.0 | 0.00 | 0.00 | 0.00 | 100 | 1012.8 |
| 20260508154304 | 98 | 29 | 0.0 | 0.0 | 0.00 | 0.00 | 0.00 | 100 | 1012.8 |
| 20260508154300 | 98 | 29 | 0.0 | 0.0 | 0.00 | 0.00 | 0.00 | 100 | 1012.8 |
| 20260508153518 | 98 | 29 | 0.0 | 0.0 | 0.00 | 0.00 | 0.00 | 100 | 1013.0 |
| 20260508152740 | 98 | 29 | 0.0 | 0.0 | 0.00 | 0.00 | 0.00 | 100 | 1012.9 |
| 20260508152224 | 98 | 29 | 0.0 | 0.0 | 0.00 | 0.00 | 0.00 | 100 | 1012.9 |
| 20260508151721 | 97 | 29 | 0.0 | 0.0 | 0.00 | 0.00 | 0.00 | 100 | 1012.9 |
| 20260508151441 | 97 | 29 | 0.0 | 0.0 | 0.00 | 0.00 | 0.00 | 100 | 1013.0 |
| 20260508150909 | 97 | 29 | 0.0 | 0.0 | 0.00 | 0.00 | 0.00 | 100 | 1013.0 |
| 20260508150136 | 97 | 29 | 0.0 | 0.0 | 0.00 | 0.00 | 0.00 | 100 | 1013.0 |
| 20260508145632 | 97 | 29 | 0.0 | 0.0 | 0.00 | 0.00 | 0.00 | 100 | 1013.1 |
| 20260508145120 | 97 | 29 | 0.0 | 0.0 | 0.00 | 0.00 | 0.00 | 100 | 1013.0 |
| 20260508144616 | 97 | 29 | 0.0 | 0.0 | 0.00 | 0.00 | 0.00 | 100 | 1012.9 |
| 20260508144112 | 97 | 29 | 0.0 | 0.0 | 0.00 | 0.00 | 0.00 | 100 | 1012.9 |
| 20260508143607 | 97 | 29 | 0.0 | 0.0 | 0.00 | 0.00 | 0.00 | 100 | 1013.0 |
| 20260508143104 | 96 | 29 | 0.0 | 5.0 | 0.00 | 0.00 | 0.00 | 100 | 1013.0 |
| 20260508142557 | 97 | 29 | 0.0 | 5.0 | 0.00 | 0.00 | 0.00 | 100 | 1012.9 |
| 20260508142055 | 96 | 109 | 0.0 | 4.0 | 0.00 | 0.00 | 0.00 | 100 | 1012.6 |
| 20260508141824 | 96 | 139 | 3.0 | 4.0 | 0.00 | 0.00 | 0.00 | 100 | 1012.6 |
| 20260508141052 | 96 | 82 | 0.0 | 3.0 | 0.00 | 0.00 | 0.00 | 100 | 1012.6 |
| 20260508140808 | 96 | 82 | 0.0 | 1.0 | 0.00 | 0.00 | 0.00 | 100 | 1012.8 |
| 20260508140018 | 96 | 82 | 0.0 | 4.0 | 0.00 | 0.00 | 0.00 | 100 | 1012.9 |
| 20260508135504 | 96 | 337 | 0.0 | 4.0 | 0.00 | 0.00 | 0.00 | 100 | 1012.8 |
| 20260508135233 | 96 | 337 | 0.0 | 0.0 | 0.00 | 0.00 | 0.00 | 100 | 1013.0 |
| 20260508134443 | 96 | 337 | 0.0 | 0.0 | 0.00 | 0.00 | 0.00 | 100 | 1013.1 |
| 20260508133920 | 96 | 337 | 0.0 | 0.0 | 0.00 | 0.00 | 0.00 | 100 | 1013.1 |
| 20260508133410 | 96 | 337 | 0.0 | 0.0 | 0.00 | 0.00 | 0.00 | 100 | 1013.1 |
| 20260508132902 | 96 | 337 | 0.0 | 0.0 | 0.00 | 0.00 | 0.00 | 100 | 1013.1 |
| 20260508132629 | 96 | 337 | 0.0 | 1.0 | 0.00 | 0.00 | 0.00 | 100 | 1013.1 |
| 20260508131859 | 95 | 337 | 0.0 | 4.0 | 0.00 | 0.00 | 0.00 | 100 | 1012.9 |
| 20260508131400 | 95 | 337 | 1.0 | 4.0 | 0.00 | 0.00 | 0.00 | 100 | 1012.8 |
| 20260508130844 | 95 | 43 | 0.0 | 0.0 | 0.00 | 0.00 | 0.00 | 100 | 1013.2 |
| 20260508130315 | 95 | 43 | 0.0 | 0.0 | 0.00 | 0.00 | 0.00 | 100 | 1013.4 |
| 20260508125802 | 95 | 43 | 0.0 | 0.0 | 0.00 | 0.00 | 0.00 | 100 | 1013.3 |
| 20260508125532 | 95 | 43 | 0.0 | 4.0 | 0.00 | 0.00 | 0.00 | 100 | 1013.2 |
| 20260508124758 | 95 | 43 | 0.0 | 4.0 | 0.00 | 0.00 | 0.00 | 100 | 1013.1 |
| 20260508124527 | 95 | 29 | 0.0 | 0.0 | 0.00 | 0.00 | 0.00 | 100 | 1013.3 |
| 20260508123750 | 95 | 29 | 0.0 | 0.0 | 0.00 | 0.00 | 0.00 | 100 | 1013.2 |
| 20260508123240 | 95 | 29 | 0.0 | 0.0 | 0.00 | 0.00 | 0.00 | 100 | 1013.2 |
| 20260508122734 | 95 | 29 | 0.0 | 0.0 | 0.00 | 0.00 | 0.00 | 100 | 1013.2 |
| 20260508122232 | 95 | 29 | 0.0 | 0.0 | 0.00 | 0.00 | 0.00 | 100 | 1013.2 |
| 20260508121712 | 95 | 29 | 0.0 | 2.0 | 0.00 | 0.00 | 0.00 | 100 | 1013.3 |
| 20260508121211 | 95 | 29 | 0.0 | 6.0 | 0.00 | 0.00 | 0.00 | 100 | 1013.4 |
| 20260508120659 | 94 | 47 | 0.0 | 6.0 | 0.00 | 0.00 | 0.00 | 100 | 1013.4 |
| 20260508120200 | 94 | 88 | 0.0 | 0.0 | 0.00 | 0.00 | 0.00 | 100 | 1013.6 |
| 20260508115650 | 94 | 88 | 0.0 | 5.0 | 0.00 | 0.00 | 0.00 | 100 | 1013.6 |
| 20260508115128 | 95 | 88 | 0.0 | 8.0 | 0.00 | 0.00 | 0.00 | 100 | 1013.6 |
| 20260508114604 | 94 | 77 | 3.0 | 8.0 | 0.00 | 0.00 | 0.00 | 100 | 1013.8 |
| 20260508114100 | 95 | 348 | 0.0 | 4.0 | 0.00 | 0.00 | 0.00 | 100 | 1014.0 |
| 20260508113558 | 95 | 348 | 0.0 | 5.0 | 0.00 | 0.00 | 0.00 | 100 | 1014.0 |
| 20260508113058 | 95 | 36 | 0.0 | 5.0 | 0.00 | 0.00 | 0.00 | 100 | 1013.8 |
| 20260508112552 | 94 | 334 | 0.0 | 5.0 | 0.00 | 0.00 | 0.00 | 100 | 1013.8 |
| 20260508112044 | 94 | 12 | 0.0 | 3.0 | 0.00 | 0.00 | 0.00 | 100 | 1013.8 |
| 20260508111543 | 95 | 4 | 1.0 | 3.0 | 0.00 | 0.00 | 0.00 | 100 | 1013.9 |
| 20260508111042 | 95 | 15 | 0.0 | 0.0 | 0.00 | 0.00 | 0.00 | 100 | 1013.9 |
| 20260508110542 | 94 | 15 | 0.0 | 0.0 | 0.00 | 0.00 | 0.00 | 100 | 1013.6 |
| 20260508110041 | 94 | 15 | 0.0 | 5.0 | 0.00 | 0.00 | 0.00 | 100 | 1013.4 |
| 20260508105759 | 94 | 15 | 0.0 | 6.0 | 0.00 | 0.00 | 0.00 | 100 | 1013.3 |
| 20260508105025 | 94 | 29 | 2.0 | 6.0 | 0.00 | 0.00 | 0.00 | 100 | 1013.3 |
| 20260508104519 | 94 | 16 | 0.0 | 4.0 | 0.00 | 0.00 | 0.00 | 100 | 1013.2 |
| 20260508104012 | 94 | 28 | 0.0 | 6.0 | 0.00 | 0.00 | 0.00 | 100 | 1013.2 |
| 20260508103512 | 94 | 310 | 0.0 | 8.0 | 0.00 | 0.00 | 0.00 | 100 | 1013.3 |
| 20260508103009 | 94 | 2 | 2.0 | 9.0 | 0.00 | 0.00 | 0.00 | 100 | 1013.4 |
| 20260508102504 | 94 | 45 | 3.0 | 9.0 | 0.00 | 0.00 | 0.00 | 100 | 1013.3 |
| 20260508102231 | 94 | 309 | 0.0 | 6.0 | 0.00 | 0.00 | 0.00 | 100 | 1013.4 |
| 20260508101731 | 94 | 327 | 2.0 | 6.0 | 0.00 | 0.00 | 0.00 | 100 | 1013.6 |
| 20260508100958 | 94 | 331 | 0.0 | 5.0 | 0.00 | 0.00 | 0.00 | 100 | 1013.8 |
| 20260508100445 | 94 | 358 | 4.0 | 5.0 | 0.00 | 0.00 | 0.00 | 100 | 1013.9 |
| 20260508095944 | 95 | 336 | 0.0 | 5.0 | 0.00 | 0.00 | 0.00 | 100 | 1014.0 |
| 20260508095440 | 94 | 307 | 0.0 | 5.0 | 0.00 | 0.00 | 0.00 | 100 | 1013.9 |
| 20260508094921 | 94 | 7 | 0.0 | 3.0 | 0.00 | 0.00 | 0.00 | 100 | 1013.8 |
| 20260508094412 | 94 | 35 | 0.0 | 0.0 | 0.00 | 0.00 | 0.00 | 100 | 1013.9 |
| 20260508093902 | 94 | 35 | 0.0 | 0.0 | 0.00 | 0.00 | 0.00 | 100 | 1014.0 |
| 20260508093358 | 94 | 35 | 0.0 | 0.0 | 0.00 | 0.00 | 0.00 | 100 | 1014.1 |
| 20260508092846 | 94 | 35 | 0.0 | 0.0 | 0.00 | 0.00 | 0.00 | 100 | 1014.0 |
| 20260508092332 | 94 | 35 | 0.0 | 0.0 | 0.00 | 0.00 | 0.00 | 100 | 1013.8 |
| 20260508091816 | 94 | 35 | 0.0 | 0.0 | 0.00 | 0.00 | 0.00 | 100 | 1013.6 |
| 20260508091317 | 94 | 35 | 0.0 | 0.0 | 0.00 | 0.00 | 0.00 | 100 | 1013.8 |
| 20260508090807 | 94 | 35 | 0.0 | 0.0 | 0.00 | 0.00 | 0.00 | 100 | 1013.5 |
| 20260508090244 | 95 | 35 | 0.0 | 0.0 | 0.00 | 0.00 | 0.00 | 100 | 1013.5 |
| 20260508085738 | 95 | 35 | 0.0 | 0.0 | 0.00 | 0.00 | 0.00 | 100 | 1013.5 |
| 20260508085229 | 94 | 35 | 0.0 | 4.0 | 0.00 | 0.00 | 0.00 | 100 | 1013.5 |
| 20260508084723 | 95 | 35 | 0.0 | 4.0 | 0.00 | 0.00 | 0.00 | 100 | 1013.4 |
| 20260508084219 | 94 | 74 | 0.0 | 0.0 | 0.00 | 0.00 | 0.00 | 100 | 1013.3 |
| 20260508083718 | 94 | 74 | 0.0 | 0.0 | 0.00 | 0.00 | 0.00 | 100 | 1013.4 |
| 20260508083441 | 95 | 74 | 0.0 | 0.0 | 0.00 | 0.00 | 0.00 | 100 | 1013.5 |
| 20260508082646 | 95 | 74 | 0.0 | 0.0 | 0.00 | 0.00 | 0.00 | 100 | 1013.6 |
| 20260508082126 | 95 | 74 | 0.0 | 0.0 | 0.00 | 0.00 | 0.00 | 100 | 1013.6 |
| 20260508081839 | 95 | 74 | 0.0 | 0.0 | 0.00 | 0.00 | 0.00 | 100 | 1013.8 |
| 20260508081106 | 95 | 74 | 0.0 | 0.0 | 0.00 | 0.00 | 0.00 | 100 | 1013.6 |
| 20260508080654 | 95 | 74 | 0.0 | 0.0 | 0.00 | 0.00 | 0.00 | 100 | 1013.6 |
| 20260508075545 | 94 | 74 | 0.0 | 3.0 | 0.00 | 0.00 | 0.00 | 100 | 1013.6 |
| 20260508075043 | 94 | 74 | 0.0 | 5.0 | 0.00 | 0.00 | 0.00 | 100 | 1013.5 |
| 20260508074544 | 95 | 60 | 0.0 | 5.0 | 0.00 | 0.00 | 0.00 | 100 | 1013.5 |
| 20260508074028 | 95 | 80 | 0.0 | 6.0 | 0.00 | 0.00 | 0.00 | 100 | 1013.5 |
| 20260508073517 | 95 | 97 | 3.0 | 6.0 | 0.00 | 0.00 | 0.00 | 100 | 1013.3 |
| 20260508072956 | 95 | 40 | 2.0 | 5.0 | 0.00 | 0.00 | 0.00 | 100 | 1013.2 |
| 20260508072448 | 95 | 43 | 0.0 | 6.0 | 0.00 | 0.00 | 0.00 | 100 | 1013.4 |
| 20260508071944 | 95 | 22 | 1.0 | 6.0 | 0.00 | 0.00 | 0.00 | 100 | 1013.8 |
| 20260508071444 | 94 | 57 | 0.0 | 5.0 | 0.00 | 0.00 | 0.00 | 100 | 1013.5 |
| 20260508070943 | 94 | 39 | 0.0 | 7.0 | 0.00 | 0.00 | 0.00 | 100 | 1013.4 |
| 20260508070714 | 94 | 32 | 0.0 | 7.0 | 0.00 | 0.00 | 0.00 | 100 | 1013.3 |
| 20260508070214 | 94 | 336 | 1.0 | 3.0 | 0.00 | 0.00 | 0.00 | 100 | 1013.6 |
| 20260508065444 | 94 | 123 | 0.0 | 2.0 | 0.00 | 0.00 | 0.00 | 100 | 1014.1 |
| 20260508065145 | 94 | 123 | 0.0 | 5.0 | 0.00 | 0.00 | 0.00 | 100 | 1014.3 |
| 20260508064405 | 94 | 123 | 1.0 | 5.0 | 0.00 | 0.00 | 0.00 | 100 | 1014.0 |
| 20260508063904 | 94 | 11 | 0.0 | 2.0 | 0.00 | 0.00 | 0.00 | 100 | 1014.1 |
| 20260508063345 | 94 | 11 | 0.0 | 0.0 | 0.00 | 0.00 | 0.00 | 100 | 1014.2 |
| 20260508063112 | 94 | 11 | 0.0 | 0.0 | 0.00 | 0.00 | 0.00 | 100 | 1014.3 |
| 20260508062331 | 94 | 11 | 0.0 | 0.0 | 0.00 | 0.00 | 0.00 | 100 | 1014.7 |
| 20260508061822 | 94 | 11 | 0.0 | 0.0 | 0.00 | 0.00 | 0.00 | 100 | 1014.8 |
| 20260508061323 | 94 | 11 | 0.0 | 0.0 | 0.00 | 0.00 | 0.00 | 100 | 1014.6 |
| 20260508060800 | 94 | 11 | 0.0 | 0.0 | 0.00 | 0.00 | 0.00 | 100 | 1014.5 |
| 20260508060739 | 94 | 11 | 0.0 | 0.0 | 0.00 | 0.00 | 0.00 | 100 | 1014.5 |
| 20260508055714 | 94 | 11 | 0.0 | 0.0 | 0.00 | 0.00 | 0.00 | 100 | 1014.2 |
| 20260508055203 | 94 | 11 | 0.0 | 0.0 | 0.00 | 0.00 | 0.00 | 100 | 1014.1 |
| 20260508054659 | 94 | 11 | 0.0 | 0.0 | 0.00 | 0.00 | 0.00 | 100 | 1014.2 |
| 20260508054649 | 94 | 11 | 0.0 | 0.0 | 0.00 | 0.00 | 0.00 | 100 | 1014.4 |
| 20260508053645 | 94 | 11 | 0.0 | 0.0 | 0.00 | 0.00 | 0.00 | 100 | 1014.6 |
| 20260508053140 | 95 | 11 | 0.0 | 0.0 | 0.00 | 0.00 | 0.00 | 100 | 1014.8 |
| 20260508052632 | 95 | 11 | 0.0 | 0.0 | 0.00 | 0.00 | 0.00 | 100 | 1014.7 |
| 20260508052343 | 94 | 11 | 0.0 | 0.0 | 0.00 | 0.00 | 0.00 | 100 | 1014.6 |
| 20260508051607 | 94 | 11 | 0.0 | 0.0 | 0.00 | 0.00 | 0.00 | 100 | 1014.3 |
| 20260508051102 | 94 | 11 | 0.0 | 0.0 | 0.00 | 0.00 | 0.00 | 100 | 1014.3 |
| 20260508050546 | 94 | 11 | 0.0 | 0.0 | 0.00 | 0.00 | 0.00 | 100 | 1014.2 |
| 20260508050033 | 94 | 11 | 0.0 | 0.0 | 0.00 | 0.00 | 0.00 | 100 | 1014.0 |
| 20260508045531 | 94 | 11 | 0.0 | 2.0 | 0.00 | 0.00 | 0.00 | 100 | 1014.4 |
| 20260508045014 | 94 | 11 | 0.0 | 5.0 | 0.00 | 0.00 | 0.00 | 100 | 1014.8 |
| 20260508044506 | 94 | 11 | 0.0 | 5.0 | 0.00 | 0.00 | 0.00 | 100 | 1014.9 |
| 20260508044006 | 94 | 106 | 0.0 | 3.0 | 0.00 | 0.00 | 0.00 | 100 | 1015.3 |
| 20260508043459 | 94 | 106 | 0.0 | 0.0 | 0.00 | 0.00 | 0.00 | 100 | 1014.5 |
| 20260508043224 | 94 | 106 | 0.0 | 0.0 | 0.00 | 0.00 | 0.00 | 100 | 1014.1 |
| 20260508042430 | 94 | 106 | 0.0 | 0.0 | 0.00 | 0.00 | 0.00 | 100 | 1014.1 |
| 20260508041926 | 94 | 106 | 0.0 | 0.0 | 0.00 | 0.00 | 0.00 | 100 | 1013.9 |
| 20260508041412 | 94 | 106 | 0.0 | 0.0 | 0.00 | 0.00 | 0.00 | 100 | 1014.3 |
| 20260508040908 | 94 | 106 | 0.0 | 0.0 | 0.00 | 0.00 | 0.00 | 100 | 1015.0 |
| 20260508040403 | 94 | 106 | 0.0 | 0.0 | 0.00 | 0.00 | 0.00 | 100 | 1015.0 |
| 20260508035858 | 94 | 106 | 0.0 | 0.0 | 0.00 | 0.00 | 0.00 | 100 | 1014.9 |
| 20260508035351 | 94 | 106 | 0.0 | 0.0 | 0.00 | 0.00 | 0.00 | 100 | 1014.7 |
| 20260508035346 | 94 | 106 | 0.0 | 0.0 | 0.00 | 0.00 | 0.00 | 100 | 1014.8 |
| 20260508034333 | 94 | 106 | 0.0 | 0.0 | 0.00 | 0.00 | 0.00 | 100 | 1015.1 |
| 20260508033818 | 94 | 106 | 0.0 | 0.0 | 0.00 | 0.00 | 0.00 | 100 | 1015.3 |
| 20260508033309 | 94 | 106 | 0.0 | 0.0 | 0.00 | 0.00 | 0.00 | 100 | 1015.3 |
| 20260508032758 | 94 | 106 | 0.0 | 0.0 | 0.00 | 0.00 | 0.00 | 100 | 1015.4 |
| 20260508032259 | 95 | 106 | 0.0 | 0.0 | 0.00 | 0.00 | 0.00 | 100 | 1015.8 |
| 20260508031749 | 95 | 106 | 0.0 | 0.0 | 0.00 | 0.00 | 0.00 | 100 | 1015.8 |
| 20260508031520 | 95 | 106 | 0.0 | 0.0 | 0.00 | 0.00 | 0.00 | 100 | 1015.6 |
| 20260508030744 | 95 | 106 | 0.0 | 0.0 | 0.00 | 0.00 | 0.00 | 100 | 1015.4 |
| 20260508030244 | 95 | 106 | 0.0 | 0.0 | 0.00 | 0.00 | 0.00 | 100 | 1015.2 |
| 20260508025731 | 95 | 106 | 0.0 | 0.0 | 0.00 | 0.00 | 0.00 | 100 | 1014.9 |
| 20260508025230 | 95 | 106 | 0.0 | 0.0 | 0.00 | 0.00 | 0.00 | 100 | 1014.8 |
| 20260508024719 | 95 | 106 | 0.0 | 0.0 | 0.00 | 0.00 | 0.00 | 100 | 1014.5 |
| 20260508024218 | 95 | 106 | 0.0 | 4.0 | 0.00 | 0.00 | 0.00 | 100 | 1014.3 |
| 20260508023926 | 95 | 106 | 0.0 | 7.0 | 0.00 | 0.00 | 0.00 | 100 | 1014.3 |
| 20260508023150 | 95 | 106 | 4.0 | 7.0 | 0.00 | 0.00 | 0.00 | 100 | 1014.0 |
| 20260508022650 | 95 | 81 | 3.0 | 7.0 | 0.00 | 0.00 | 0.00 | 100 | 1013.8 |
| 20260508022151 | 95 | 137 | 0.0 | 7.0 | 0.00 | 0.00 | 0.00 | 100 | 1013.3 |
| 20260508021643 | 95 | 64 | 1.0 | 6.0 | 0.00 | 0.00 | 0.00 | 100 | 1013.0 |
| 20260508021140 | 95 | 113 | 1.0 | 6.0 | 0.00 | 0.00 | 0.00 | 100 | 1013.0 |
| 20260508020631 | 95 | 126 | 0.0 | 10.0 | 0.00 | 0.00 | 0.00 | 100 | 1013.1 |
| 20260508020118 | 95 | 77 | 2.0 | 10.0 | 0.00 | 0.00 | 0.00 | 100 | 1013.3 |
| 20260508015615 | 95 | 36 | 0.0 | 6.0 | 0.00 | 0.00 | 0.00 | 100 | 1013.4 |
| 20260508015112 | 95 | 108 | 0.0 | 7.0 | 0.00 | 0.00 | 0.00 | 100 | 1013.4 |
| 20260508014613 | 95 | 125 | 1.0 | 7.0 | 0.00 | 0.00 | 0.00 | 100 | 1013.4 |
| 20260508014113 | 95 | 50 | 1.0 | 6.0 | 0.00 | 0.00 | 0.00 | 100 | 1013.2 |
| 20260508013611 | 95 | 50 | 0.0 | 6.0 | 0.00 | 0.00 | 0.00 | 100 | 1013.1 |
| 20260508013113 | 95 | 59 | 1.0 | 5.0 | 0.00 | 0.00 | 0.00 | 100 | 1013.3 |
| 20260508013109 | 95 | 87 | 0.0 | 5.0 | 0.00 | 0.00 | 0.00 | 100 | 1013.1 |
| 20260508012059 | 95 | 115 | 3.0 | 5.0 | 0.00 | 0.00 | 0.00 | 100 | 1013.4 |
| 20260508011552 | 95 | 142 | 4.0 | 9.0 | 0.00 | 0.00 | 0.00 | 100 | 1013.2 |
| 20260508011050 | 95 | 326 | 5.0 | 9.0 | 0.00 | 0.00 | 0.00 | 100 | 1013.2 |
| 20260508010551 | 96 | 43 | 5.0 | 9.0 | 0.00 | 0.00 | 0.00 | 100 | 1013.9 |
| 20260508010323 | 95 | 91 | 2.0 | 7.0 | 0.00 | 0.00 | 0.00 | 100 | 1013.9 |
| 20260508005551 | 95 | 358 | 1.0 | 10.0 | 0.00 | 0.00 | 0.00 | 100 | 1013.3 |
| 20260508005050 | 96 | 22 | 3.0 | 10.0 | 0.00 | 0.00 | 0.00 | 100 | 1013.9 |
| 20260508004547 | 96 | 309 | 3.0 | 9.0 | 0.00 | 0.00 | 0.00 | 100 | 1013.8 |
| 20260508004047 | 96 | 129 | 4.0 | 7.0 | 0.00 | 0.00 | 0.00 | 100 | 1013.6 |
| 20260508003543 | 96 | 9 | 0.0 | 11.0 | 0.00 | 0.00 | 0.00 | 100 | 1013.9 |
| 20260508003045 | 96 | 23 | 1.0 | 11.0 | 0.00 | 0.00 | 0.00 | 100 | 1013.9 |
| 20260508002543 | 96 | 343 | 2.0 | 7.0 | 0.00 | 0.00 | 0.00 | 100 | 1013.8 |
| 20260508002043 | 96 | 322 | 1.0 | 7.0 | 0.00 | 0.00 | 0.00 | 100 | 1014.0 |
| 20260508001543 | 96 | 150 | 4.0 | 7.0 | 0.00 | 0.00 | 0.00 | 100 | 1014.1 |
| 20260508001043 | 97 | 343 | 2.0 | 6.0 | 0.00 | 0.00 | 0.00 | 100 | 1014.6 |
| 20260508000545 | 97 | 75 | 2.0 | 5.0 | 0.00 | 0.00 | 0.00 | 100 | 1014.5 |
| 20260508000042 | 97 | 33 | 0.0 | 1.0 | 0.00 | 0.00 | 0.00 | 100 | 1014.5 |
| 20260507235755 | 96 | 33 | 0.0 | 3.0 | 0.00 | 0.00 | 0.00 | 100 | 1014.5 |
| 20260507235026 | 97 | 33 | 0.0 | 4.0 | 0.00 | 0.00 | 0.00 | 100 | 1014.9 |
| 20260507234520 | 97 | 7 | 0.0 | 4.0 | 0.00 | 0.00 | 0.00 | 100 | 1015.1 |
| 20260507234005 | 96 | 73 | 0.0 | 5.0 | 0.00 | 0.00 | 0.00 | 100 | 1014.8 |
| 20260507233506 | 97 | 59 | 0.0 | 5.0 | 0.00 | 0.00 | 0.00 | 100 | 1014.8 |
| 20260507232958 | 97 | 35 | 0.0 | 4.0 | 0.00 | 0.00 | 0.00 | 100 | 1014.8 |
| 20260507232445 | 97 | 320 | 0.0 | 4.0 | 0.00 | 0.00 | 0.00 | 100 | 1015.0 |
| 20260507231944 | 97 | 320 | 0.0 | 5.0 | 0.00 | 0.00 | 0.00 | 100 | 1015.1 |
| 20260507231436 | 97 | 33 | 0.0 | 6.0 | 0.00 | 0.00 | 0.00 | 100 | 1014.8 |
| 20260507230925 | 97 | 82 | 4.0 | 6.0 | 0.00 | 0.00 | 0.00 | 100 | 1014.7 |
| 20260507230413 | 97 | 334 | 2.0 | 6.0 | 0.00 | 0.00 | 0.00 | 100 | 1014.7 |
| 20260507225912 | 97 | 28 | 0.0 | 6.0 | 0.00 | 0.00 | 0.00 | 100 | 1015.0 |
| 20260507225408 | 97 | 46 | 3.0 | 9.0 | 0.00 | 0.00 | 0.00 | 100 | 1014.9 |
| 20260507224906 | 97 | 68 | 6.0 | 9.0 | 0.00 | 0.00 | 0.00 | 100 | 1014.9 |
| 20260507224406 | 97 | 18 | 0.0 | 10.0 | 0.00 | 0.00 | 0.00 | 100 | 1014.8 |
| 20260507223853 | 97 | 19 | 3.0 | 10.0 | 0.00 | 0.00 | 0.00 | 100 | 1014.8 |
| 20260507223347 | 97 | 59 | 0.0 | 6.0 | 0.00 | 0.00 | 0.00 | 100 | 1015.1 |
| 20260507222845 | 97 | 292 | 0.0 | 6.0 | 0.00 | 0.00 | 0.00 | 100 | 1015.2 |
| 20260507222345 | 97 | 303 | 3.0 | 11.0 | 0.00 | 0.00 | 0.00 | 100 | 1015.3 |
| 20260507221843 | 97 | 29 | 0.0 | 11.0 | 0.00 | 0.00 | 0.00 | 100 | 1015.3 |
| 20260507221343 | 97 | 357 | 2.0 | 10.0 | 0.00 | 0.00 | 0.00 | 100 | 1015.2 |
| 20260507220843 | 97 | 1 | 5.0 | 11.0 | 0.00 | 0.00 | 0.00 | 100 | 1015.3 |
| 20260507220347 | 97 | 333 | 7.0 | 11.0 | 0.00 | 0.00 | 0.00 | 100 | 1015.2 |
| 20260507220343 | 97 | 358 | 6.0 | 11.0 | 0.00 | 0.00 | 0.00 | 100 | 1015.3 |
| 20260507215347 | 97 | 5 | 4.0 | 13.0 | 0.00 | 0.00 | 0.00 | 100 | 1015.3 |
| 20260507215343 | 97 | 15 | 2.0 | 8.0 | 0.00 | 0.00 | 0.00 | 100 | 1015.3 |
| 20260507214328 | 97 | 1 | 6.0 | 13.0 | 0.00 | 0.00 | 0.00 | 100 | 1015.7 |
| 20260507213826 | 97 | 338 | 3.0 | 9.0 | 0.00 | 0.00 | 0.00 | 100 | 1015.8 |
| 20260507213327 | 98 | 8 | 0.0 | 13.0 | 0.00 | 0.00 | 0.00 | 100 | 1015.8 |
| 20260507212827 | 98 | 310 | 2.0 | 13.0 | 0.00 | 0.00 | 0.00 | 100 | 1015.9 |
| 20260507212327 | 98 | 49 | 2.0 | 8.0 | 0.00 | 0.00 | 0.00 | 100 | 1015.7 |
| 20260507211826 | 97 | 309 | 4.0 | 8.0 | 0.00 | 0.00 | 0.00 | 100 | 1015.6 |
| 20260507211326 | 97 | 56 | 5.0 | 8.0 | 0.00 | 0.00 | 0.00 | 100 | 1015.3 |
| 20260507211057 | 97 | 334 | 2.0 | 9.0 | 0.00 | 0.00 | 0.00 | 100 | 1015.3 |
| 20260507210324 | 97 | 123 | 4.0 | 9.0 | 0.00 | 0.00 | 0.00 | 100 | 1015.2 |
| 20260507205821 | 97 | 7 | 5.0 | 8.0 | 0.00 | 0.00 | 0.00 | 100 | 1015.6 |
| 20260507205321 | 96 | 18 | 4.0 | 7.0 | 0.00 | 0.00 | 0.00 | 100 | 1015.6 |